Arlington, VA

9:29 PM EST on December 07, 2016 (GMT -0500)
Ronald Reagan Washington National

Weather History for KDCA - June, 2013

Change the Weather History Date:

Friday, June 28, 2013

  Actual Average Record
Temperature  
Mean Temperature 79 °F 78 °F  
Max Temperature 89 °F 87 °F 100 °F (1969)
Min Temperature 69 °F 70 °F 54 °F (1927)
Degree Days  
Heating Degree Days 0 0  
Month to date heating degree days 0 5  
Since 1 June heating degree days 0 5  
Since 1 July heating degree days 3765 4030  
Cooling Degree Days 14 14  
Month to date cooling degree days 320 286  
Year to date cooling degree days 505 420  
Since 1 June cooling degree days 320 286  
Growing Degree Days 28 (Base 50)    
Moisture  
Dew Point 69 °F    
Average Humidity 74    
Maximum Humidity 93    
Minimum Humidity 55    
Precipitation  
Precipitation 2.86 in 0.13 in 2.95 in (1914)
Month to date precipitation 9.69 3.53  
Year to date precipitation 22.27 19.49  
Snow  
Snow 0.00 in 0.00 in - ()
Month to date snowfall 0.0 0.0  
Since 1 July snowfall 3.1 15.4  
Snow Depth 0.00 in    
Sea Level Pressure  
Sea Level Pressure 29.56 in    
Wind  
Wind Speed 8 mph (South)    
Max Wind Speed 46 mph    
Max Gust Speed 53 mph    
Visibility 8 miles    
Events Rain , Hail , Thunderstorm    
T = Trace of Precipitation, MM = Missing Value Source: NWS Daily Summary

Daily Weather History Graph

Daily Weather History Graph

Search for Another Location

Airport or City:

Trip Planner

Search our weather history database for the weather conditions in past years. The results will help you decide how hot, cold, wet, or windy it might be!

Date:

Astronomy

Jun. 28, 2013 Rise Set
Actual Time 5:45 AM EDT 8:37 PM EDT
Civil Twilight 5:13 AM EDT 9:09 PM EDT
Nautical Twilight 4:33 AM EDT 9:49 PM EDT
Astronomical Twilight 3:47 AM EDT 10:35 PM EDT
Moon No Moon Rise 11:47 AM EDT (6/28)
Length of Visible Light 15h 55m
Length of Day
14h 51m
Waning Gibbous, 66% of the Moon is Illuminated
Jun 28
Waning Gibbous
Jun 30
Last Quarter
Jul 8
New
Jul 15
First Quarter
Jul 22
Full

Hourly Weather History & Observations

Time (EDT) Temp. Heat Index Dew Point Humidity Pressure Visibility Wind Dir Wind Speed Gust Speed Precip Events Conditions
12:52 AM 75.0 °F - 70.0 °F 84% 29.64 in 10.0 mi SW 6.9 mph - N/A   Partly Cloudy
1:52 AM 75.0 °F - 70.0 °F 84% 29.61 in 10.0 mi SSW 8.1 mph - N/A   Partly Cloudy
2:52 AM 73.9 °F - 70.0 °F 87% 29.60 in 10.0 mi SSW 8.1 mph - N/A   Mostly Cloudy
3:52 AM 73.9 °F - 69.1 °F 85% 29.59 in 10.0 mi SW 5.8 mph - N/A   Scattered Clouds
4:52 AM 73.0 °F - 69.1 °F 87% 29.59 in 10.0 mi South 5.8 mph - N/A   Scattered Clouds
5:52 AM 73.0 °F - 68.0 °F 84% 29.60 in 10.0 mi SSW 5.8 mph - N/A   Mostly Cloudy
6:52 AM 73.9 °F - 68.0 °F 82% 29.62 in 10.0 mi Calm Calm - N/A   Mostly Cloudy
7:07 AM 75.2 °F - 66.2 °F 73% 29.61 in 10.0 mi Calm Calm - N/A   Mostly Cloudy
7:52 AM 75.9 °F - 68.0 °F 76% 29.60 in 10.0 mi South 3.5 mph - N/A   Mostly Cloudy
8:52 AM 79.0 °F - 70.0 °F 74% 29.60 in 10.0 mi South 4.6 mph - N/A   Mostly Cloudy
9:52 AM 81.0 °F 84.9 °F 71.1 °F 72% 29.58 in 10.0 mi South 9.2 mph - N/A   Scattered Clouds
10:52 AM 84.9 °F 87.1 °F 66.0 °F 53% 29.59 in 10.0 mi West 4.6 mph - N/A   Mostly Cloudy
11:52 AM 84.9 °F 88.8 °F 69.1 °F 59% 29.59 in 10.0 mi South 8.1 mph - N/A   Mostly Cloudy
12:52 PM 86.0 °F 91.5 °F 71.1 °F 61% 29.58 in 10.0 mi South 11.5 mph - N/A   Mostly Cloudy
1:52 PM 87.1 °F 93.6 °F 72.0 °F 61% 29.55 in 10.0 mi South 16.1 mph - N/A   Scattered Clouds
2:52 PM 86.0 °F 90.7 °F 70.0 °F 59% 29.52 in 10.0 mi South 13.8 mph - N/A   Mostly Cloudy
3:09 PM 86.0 °F 90.4 °F 69.8 °F 58% 29.51 in 10.0 mi South 12.7 mph - N/A Thunderstorm Thunderstorm
3:17 PM 84.2 °F 88.4 °F 69.8 °F 62% 29.51 in 10.0 mi South 12.7 mph - 0.00 in Rain , Thunderstorm Light Thunderstorms and Rain
3:33 PM 82.4 °F 86.3 °F 69.8 °F 66% 29.53 in 1.5 mi WNW 13.8 mph - 0.02 in Rain , Thunderstorm Heavy Thunderstorms and Rain
3:38 PM 75.2 °F - 69.8 °F 83% 29.55 in 1.0 mi NW 26.5 mph 41.4 mph 0.15 in Rain , Thunderstorm Heavy Thunderstorms and Rain
3:49 PM 69.8 °F - 62.6 °F 78% 29.58 in 0.8 mi West 46.0 mph 52.9 mph 0.45 in Rain , Thunderstorm Heavy Thunderstorms and Rain
3:52 PM 69.1 °F - 63.0 °F 81% 29.60 in 0.5 mi West 21.9 mph 52.9 mph 0.47 in Rain , Hail , Thunderstorm Heavy Thunderstorms and Rain
4:04 PM 69.8 °F - 64.4 °F 83% 29.58 in 1.2 mi SSE 17.3 mph 27.6 mph 0.87 in Rain , Thunderstorm Heavy Thunderstorms and Rain
4:10 PM 71.6 °F - 64.4 °F 78% 29.56 in 4.0 mi South 17.3 mph 27.6 mph 0.94 in Rain , Thunderstorm Light Thunderstorms and Rain
4:17 PM 71.6 °F - 66.2 °F 83% 29.53 in 8.0 mi ESE 8.1 mph 25.3 mph 0.96 in Rain , Thunderstorm Light Thunderstorms and Rain
4:24 PM 73.4 °F - 66.2 °F 78% 29.52 in 9.0 mi ESE 8.1 mph - 0.97 in   Mostly Cloudy
4:39 PM 73.4 °F - 68.0 °F 83% 29.52 in 10.0 mi SSE 5.8 mph - 0.97 in   Mostly Cloudy
4:52 PM 75.0 °F - 68.0 °F 79% 29.55 in 10.0 mi NNW 13.8 mph 18.4 mph 0.97 in Thunderstorm Thunderstorm
5:04 PM 73.4 °F - 66.2 °F 78% 29.53 in 5.0 mi NNE 11.5 mph - 0.00 in Rain , Thunderstorm Heavy Thunderstorms and Rain
5:17 PM 73.4 °F - 69.8 °F 88% 29.52 in 9.0 mi ENE 11.5 mph - 0.12 in Rain Light Rain
5:42 PM 73.4 °F - 69.8 °F 88% 29.52 in 10.0 mi ESE 4.6 mph - 0.12 in Thunderstorm Thunderstorm
5:52 PM 73.9 °F - 68.0 °F 82% 29.53 in 9.0 mi NE 4.6 mph - 0.12 in Rain , Thunderstorm Light Thunderstorms and Rain
6:00 PM 73.4 °F - 68.0 °F 83% 29.53 in 7.0 mi NNW 6.9 mph - 0.00 in Rain , Thunderstorm Light Thunderstorms and Rain
6:04 PM 73.4 °F - 68.0 °F 83% 29.53 in 2.5 mi North 8.1 mph - 0.01 in Rain , Thunderstorm Heavy Thunderstorms and Rain
6:24 PM 71.6 °F - 69.8 °F 94% 29.51 in 2.5 mi ENE 9.2 mph - 0.39 in Rain , Thunderstorm Heavy Thunderstorms and Rain
6:31 PM 73.4 °F - 69.8 °F 88% 29.53 in 1.5 mi Calm Calm - 0.49 in Rain , Thunderstorm Heavy Thunderstorms and Rain
6:52 PM 72.0 °F - 69.1 °F 91% 29.54 in 2.5 mi SSW 12.7 mph - 1.13 in Rain , Thunderstorm Heavy Thunderstorms and Rain
7:03 PM 71.6 °F - 69.8 °F 94% 29.54 in 6.0 mi SSW 11.5 mph - 0.09 in Rain , Thunderstorm Light Thunderstorms and Rain
7:19 PM 73.4 °F - 69.8 °F 88% 29.54 in 7.0 mi SSW 8.1 mph - 0.12 in Rain Light Rain
7:52 PM 73.0 °F - 70.0 °F 90% 29.53 in 7.0 mi SE 3.5 mph - 0.17 in Rain Light Rain
8:52 PM 73.9 °F - 70.0 °F 87% 29.57 in 10.0 mi SW 10.4 mph 17.3 mph 0.00 in   Mostly Cloudy
9:52 PM 73.0 °F - 69.1 °F 87% 29.57 in 10.0 mi SSW 3.5 mph - N/A   Overcast
10:52 PM 73.9 °F - 70.0 °F 87% 29.58 in 10.0 mi South 6.9 mph - 0.00 in   Mostly Cloudy
11:07 PM 73.4 °F - 69.8 °F 88% 29.58 in 9.0 mi South 9.2 mph - N/A   Mostly Cloudy
11:52 PM 73.0 °F - 69.1 °F 87% 29.58 in 10.0 mi SE 4.6 mph - N/A   Mostly Cloudy